EN

Hourly Weather Jankowice

Today, 30 September, Wednesday

Time Temperature Precipitation Wind Pressure Humidity
00:00 +12°C° 0.5 mm 4 mps 741 mmHg 93%
01:00 +12°C° 0.5 mm 5 mps 741 mmHg 91%
02:00 +12°C° 0.7 mm 5 mps 740 mmHg 91%
03:00 +11°C° 0.7 mm 6 mps 740 mmHg 92%
04:00 +11°C° 0.7 mm 6 mps 740 mmHg 92%
05:00 +11°C° 1.1 mm 6 mps 740 mmHg 93%
06:00 +11°C° 1.1 mm 6 mps 740 mmHg 94%
07:00 +11°C° 1.1 mm 7 mps 739 mmHg 95%
08:00 +11°C° 1.6 mm 6 mps 740 mmHg 94%
09:00 +11°C° 1.6 mm 6 mps 740 mmHg 94%
10:00 +11°C° 1.6 mm 6 mps 740 mmHg 94%
11:00 +11°C° 0.8 mm 6 mps 739 mmHg 94%
12:00 +11°C° 0.8 mm 6 mps 739 mmHg 94%
13:00 +11°C° 0.8 mm 6 mps 739 mmHg 93%
14:00 +11°C° 2.3 mm 6 mps 739 mmHg 94%
15:00 +11°C° 2.3 mm 6 mps 739 mmHg 94%
16:00 +11°C° 2.3 mm 6 mps 739 mmHg 94%
17:00 +12°C° 1.7 mm 5 mps 739 mmHg 94%
18:00 +12°C° 1.7 mm 5 mps 739 mmHg 94%
19:00 +12°C° 1.7 mm 5 mps 739 mmHg 94%
20:00 +12°C° 0.2 mm 4 mps 738 mmHg 94%
21:00 +12°C° 0.2 mm 4 mps 738 mmHg 93%
22:00 +12°C° 0.2 mm 3 mps 738 mmHg 92%
23:00 +11°C° 0.1 mm 3 mps 738 mmHg 92%

Tomorrow, 1 October, Thursday

Time Temperature Precipitation Wind Pressure Humidity
00:00 +11°C° 0.1 mm 3 mps 738 mmHg 93%
01:00 +11°C° 0.1 mm 3 mps 738 mmHg 94%
02:00 +11°C° 0.1 mm 3 mps 737 mmHg 94%
03:00 +11°C° 0.1 mm 3 mps 737 mmHg 94%
04:00 +11°C° 0.1 mm 3 mps 737 mmHg 95%
05:00 +11°C° 0.4 mm 3 mps 736 mmHg 95%
06:00 +11°C° 0.4 mm 3 mps 736 mmHg 95%
07:00 +11°C° 0.4 mm 3 mps 736 mmHg 95%
08:00 +11°C° 0.5 mm 3 mps 736 mmHg 95%
09:00 +11°C° 0.5 mm 3 mps 736 mmHg 95%
10:00 +11°C° 0.5 mm 3 mps 736 mmHg 95%
11:00 +11°C° 0.4 mm 3 mps 736 mmHg 94%
12:00 +12°C° 0.4 mm 3 mps 736 mmHg 94%
13:00 +12°C° 0.4 mm 3 mps 736 mmHg 94%
14:00 +12°C° 0.1 mm 3 mps 736 mmHg 92%
15:00 +14°C° 0.1 mm 2 mps 736 mmHg 91%
16:00 +14°C° 0.1 mm 2 mps 736 mmHg 89%
17:00 +14°C° 0.1 mm 2 mps 736 mmHg 90%
18:00 +13°C° 0.1 mm 2 mps 736 mmHg 91%
19:00 +12°C° 0.1 mm 3 mps 737 mmHg 93%
20:00 +11°C° 0 mm 3 mps 737 mmHg 93%
21:00 +12°C° 0 mm 2 mps 737 mmHg 94%
22:00 +10°C° 0 mm 2 mps 737 mmHg 95%
23:00 +10°C° 0 mm 2 mps 737 mmHg 95%

Day after tomorrow, 2 October, Friday

Time Temperature Precipitation Wind Pressure Humidity
00:00 +10°C° 0 mm 2 mps 737 mmHg 95%
01:00 +10°C° 0 mm 2 mps 737 mmHg 95%
02:00 +10°C° 0 mm 2 mps 737 mmHg 95%
03:00 +10°C° 0 mm 2 mps 737 mmHg 94%
04:00 +10°C° 0 mm 2 mps 737 mmHg 94%
05:00 +10°C° 0 mm 2 mps 738 mmHg 94%
06:00 +10°C° 0 mm 2 mps 738 mmHg 93%
07:00 +12°C° 0 mm 2 mps 738 mmHg 92%
08:00 +13°C° 0 mm 2 mps 738 mmHg 89%
09:00 +14°C° 0 mm 2 mps 738 mmHg 85%
10:00 +15°C° 0 mm 2 mps 738 mmHg 82%
11:00 +15°C° 0.1 mm 2 mps 738 mmHg 80%
12:00 +16°C° 0.1 mm 2 mps 738 mmHg 77%
13:00 +16°C° 0.1 mm 2 mps 739 mmHg 75%
14:00 +16°C° 0 mm 2 mps 739 mmHg 76%
15:00 +16°C° 0 mm 2 mps 739 mmHg 77%
16:00 +16°C° 0 mm 2 mps 739 mmHg 78%
17:00 +15°C° 0 mm 2 mps 739 mmHg 82%
18:00 +14°C° 0 mm 2 mps 739 mmHg 87%
19:00 +12°C° 0 mm 3 mps 739 mmHg 91%
20:00 +12°C° 0 mm 3 mps 739 mmHg 92%
21:00 +11°C° 0 mm 3 mps 740 mmHg 93%
22:00 +11°C° 0 mm 3 mps 740 mmHg 94%
23:00 +11°C° 0 mm 3 mps 739 mmHg 94%

3 October, Saturday

Time Temperature Precipitation Wind Pressure Humidity
00:00 +11°C° 0 mm 3 mps 739 mmHg 94%
01:00 +11°C° 0 mm 4 mps 739 mmHg 94%
02:00 +12°C° 0.1 mm 4 mps 739 mmHg 93%
03:00 +12°C° 0.1 mm 4 mps 739 mmHg 92%
04:00 +13°C° 0.1 mm 5 mps 739 mmHg 91%
05:00 +13°C° 0 mm 5 mps 739 mmHg 90%
06:00 +14°C° 0 mm 5 mps 739 mmHg 89%
07:00 +14°C° 0 mm 6 mps 738 mmHg 88%
08:00 +15°C° 0 mm 7 mps 738 mmHg 81%
09:00 +17°C° 0 mm 7 mps 738 mmHg 75%
10:00 +18°C° 0 mm 8 mps 738 mmHg 69%
11:00 +20°C° 0 mm 8 mps 738 mmHg 65%
12:00 +21°C° 0 mm 8 mps 737 mmHg 61%
13:00 +22°C° 0 mm 8 mps 737 mmHg 57%
14:00 +22°C° 0 mm 8 mps 737 mmHg 60%
15:00 +21°C° 0 mm 7 mps 737 mmHg 62%
16:00 +21°C° 0 mm 6 mps 736 mmHg 64%
17:00 +20°C° 0 mm 6 mps 737 mmHg 64%
18:00 +20°C° 0 mm 6 mps 737 mmHg 65%
19:00 +19°C° 0 mm 5 mps 737 mmHg 66%
20:00 +19°C° 0 mm 6 mps 737 mmHg 65%
21:00 +19°C° 0 mm 6 mps 736 mmHg 64%
22:00 +19°C° 0 mm 6 mps 736 mmHg 63%
23:00 +19°C° 0 mm 6 mps 736 mmHg 63%

4 October, Sunday

Time Temperature Precipitation Wind Pressure Humidity
00:00 +19°C° 0 mm 6 mps 736 mmHg 62%
01:00 +18°C° 0 mm 7 mps 735 mmHg 62%
02:00 +18°C° 0.2 mm 7 mps 735 mmHg 64%
03:00 +17°C° 0.2 mm 7 mps 735 mmHg 66%
04:00 +17°C° 0.2 mm 7 mps 735 mmHg 69%
05:00 +17°C° 0 mm 7 mps 735 mmHg 67%
06:00 +17°C° 0 mm 7 mps 735 mmHg 66%
07:00 +17°C° 0 mm 8 mps 735 mmHg 64%
08:00 +18°C° 0.1 mm 8 mps 735 mmHg 64%
09:00 +18°C° 0.1 mm 8 mps 736 mmHg 63%
10:00 +20°C° 0.1 mm 8 mps 736 mmHg 62%
11:00 +21°C° 0 mm 7 mps 736 mmHg 60%
12:00 +22°C° 0 mm 7 mps 737 mmHg 58%
13:00 +22°C° 0 mm 6 mps 737 mmHg 56%
14:00 +22°C° 0 mm 6 mps 737 mmHg 58%
15:00 +21°C° 0 mm 5 mps 737 mmHg 60%
16:00 +20°C° 0 mm 4 mps 738 mmHg 62%
17:00 +18°C° 0 mm 4 mps 738 mmHg 67%
18:00 +17°C° 0 mm 4 mps 738 mmHg 71%
19:00 +14°C° 0 mm 3 mps 738 mmHg 76%
20:00 +13°C° 0 mm 3 mps 739 mmHg 79%
21:00 +14°C° 0 mm 2 mps 739 mmHg 83%
22:00 +13°C° 0 mm 2 mps 739 mmHg 86%
23:00 +13°C° 0 mm 2 mps 739 mmHg 88%

5 October, Monday

Time Temperature Precipitation Wind Pressure Humidity
00:00 +12°C° 0 mm 2 mps 738 mmHg 91%
01:00 +11°C° 0 mm 3 mps 738 mmHg 93%
02:00 +12°C° 0 mm 3 mps 738 mmHg 92%
03:00 +12°C° 0 mm 3 mps 738 mmHg 90%
04:00 +13°C° 0 mm 3 mps 737 mmHg 89%
05:00 +13°C° 0 mm 4 mps 737 mmHg 88%
06:00 +14°C° 0 mm 4 mps 737 mmHg 86%
07:00 +15°C° 0 mm 5 mps 737 mmHg 85%
08:00 +17°C° 0 mm 5 mps 736 mmHg 78%
09:00 +19°C° 0 mm 6 mps 736 mmHg 70%
10:00 +21°C° 0 mm 7 mps 736 mmHg 63%
11:00 +22°C° 0 mm 7 mps 736 mmHg 57%
12:00 +23°C° 0 mm 7 mps 736 mmHg 52%
13:00 +23°C° 0 mm 7 mps 737 mmHg 47%
14:00 +22°C° 0 mm 6 mps 736 mmHg 51%
15:00 +21°C° 0 mm 5 mps 736 mmHg 55%
16:00 +21°C° 0 mm 4 mps 736 mmHg 60%
17:00 +19°C° 0 mm 4 mps 736 mmHg 64%
18:00 +18°C° 0 mm 4 mps 737 mmHg 68%
19:00 +17°C° 0 mm 3 mps 737 mmHg 72%
20:00 +17°C° 0 mm 3 mps 737 mmHg 75%
21:00 +17°C° 0 mm 3 mps 737 mmHg 78%
22:00 +16°C° 0 mm 3 mps 736 mmHg 81%
23:00 +15°C° 0 mm 4 mps 736 mmHg 79%
Show more

We Need Your Consent

Meteoprog and our Service Providers may store and access personal data such as cookies, device identifiers or other similar technologies on your device and process such data to personalise content and ads, as well as provide social media features and to analyse the traffic.

  • Store and/or access information on your device

    Cookies, device identifiers or other information can be stored or accessed on your device for the purposes indicated above.

  • Personalised ads and content, ad and content measurement, audience insights, and products development

    Ads and content can be personalised based on a profile. More data can be added to better personalise ads and content. Ad and content performance can be measured. Insights about the audience who saw the ads and content can be derived. Such data can be used to develop or improve user’s experience, systems and software.

By clicking ‘I Agree’ you will allow the use of indicated cookies, device identifiers, web beacons or other similar technologies. Your settings can be changed in the browser on your device.

For certain purposes, legitimate interests may be relied on, rather than consent. You can read more about this in our Privacy and Cookie Policy.